Regional Weather Roundup
Issued by NWS Albany, NY

Home | Current Version | Previous Version | Text Only | Print | Product List | Glossary On
Versions: 1 2 3 4 5 6 7 8 9 10 11 12 13 14 15 16 17 18 19 20 21 22 23 24 25 26 27 28 29 30 31 32 33 34 35 36 37 38 39 40 41 42 43 44 45 46 47 48 49 50
000
ASUS41 KALY 270110
RWRALY

NEW YORK STATE HOURLY WEATHER ROUNDUP
NATIONAL WEATHER SERVICE ALBANY NY
800 PM EST SUN FEB 26 2017

NOTE: "FAIR" INDICATES FEW OR NO CLOUDS BELOW 12,000 FEET WITH NO
SIGNIFICANT WEATHER AND/OR NO OBSTRUCTIONS TO VISIBILITY.

NYZ032-033-038>043-046>054-057>066-NYZ062>081-082-084-270200-
EAST


CITY           SKY/WX    TMP DP  RH WIND       PRES   REMARKS
ALBANY         PTCLDY    29  19  66 SW3       30.15R
GLENS FALLS    MOCLDY    32  17  54 SW5       30.11R WCI  27
POUGHKEEPSIE   CLEAR     33  17  51 W7        30.17R WCI  27
NEWBURGH       MOCLDY    36  19  51 W8        30.18R WCI  29
MONTGOMERY     CLEAR     32  20  61 SW5       30.17R WCI  27
WHITE PLAINS   CLEAR     35  16  45 W10       30.16R WCI  27
ISLIP          PTCLDY    36  18  48 NW10      30.18R WCI  28
NEW YORK CITY  PTCLDY    41  16  36 W16G24    30.19R
CENTRAL PARK   PTCLDY    38  16  40 W12G18    30.21R WCI  30
$$

NYZ005>009-017-018-044>046-055-056-270200-
CENTRAL


CITY           SKY/WX    TMP DP  RH WIND       PRES   REMARKS
FULTON         CLEAR     28  17  63 S5        30.09R WCI  23
SYRACUSE       CLEAR     29  18  63 S7        30.09S WCI  22
ROME           CLEAR     27  23  85 SE3       30.13R
ELMIRA         CLEAR     28  16  60 W5        30.11R WCI  23
BINGHAMTON     CLEAR     25  15  66 SW6       30.07S WCI  18
MONTICELLO     CLEAR    N/A N/A N/A W7        30.12S
$$

NYZ026>034-041>043-087-270200-
NORTH


CITY           SKY/WX    TMP DP  RH WIND       PRES   REMARKS
WATERTOWN      PTCLDY    30  22  72 SW9       30.06S WCI  22
FORT DRUM      NOT AVBL
OGDENSBURG     FAIR      31  22  69 SW14G20   30.02S WCI  21
MASSENA        CLEAR     30  20  66 SW14      30.02S WCI  19
SARANAC LAKE   CLEAR     20  17  88 SW7       29.96R WCI  11
PLATTSBURGH    CLEAR     29  14  53 S3        30.04S
$$

NYZ001>004-010>016-019>021-085-270200-
WEST


CITY           SKY/WX    TMP DP  RH WIND       PRES   REMARKS
NIAGARA FALLS  PTCLDY    33  23  66 S14       30.04F WCI  23
BUFFALO        PTCLDY    31  21  66 S10       30.05F WCI  22
DUNKIRK        MOCLDY    34  18  52 S18G29    30.07F WCI  23
JAMESTOWN      CLEAR     28  14  54 S10G17    30.06R WCI  19
WELLSVILLE     CLEAR     28  14  55 VRB6      30.06R WCI  22
ROCHESTER      CLEAR     32  18  56 SW10      30.07S WCI  24
PENN YAN       CLEAR     32  16  51 SW13      30.07F WCI  22
$$

             KEY
       WCI = WIND CHILL INDEX
       VSB = VISIBILITY
       HX  = HEAT INDEX
$$



USA.gov is the U.S. government's official web portal to all federal, state and local government web resources and services.